EW5461 Weather Reports


Display with metric or nautical units.
time (UTC)temp
F
wind
direction
speed
MPH
gust
MPH
rain 1hr
in
rain 24hr
in
rain mn
in
humidity
%
barometer
mb
20260510191532 70 116 3.0 6.0 0.00 0.00 0.00 78 1015.2
20260510190031 70 9 2.0 6.0 0.00 0.00 0.00 78 1014.9
20260510184528 70 88 2.0 10.0 0.00 0.00 0.00 78 1014.6
20260510183041 69 57 2.0 9.0 0.00 0.00 0.00 79 1014.5
20260510181529 69 33 4.0 7.0 0.00 0.00 0.00 79 1014.4
20260510180029 69 213 4.0 10.0 0.00 0.00 0.00 78 1014.3
20260510174525 70 355 3.0 12.0 0.00 0.00 0.00 78 1014.3
20260510173026 70 57 4.0 10.0 0.00 0.00 0.00 75 1014.3
20260510171524 69 121 3.0 10.0 0.00 0.00 0.00 76 1014.4
20260510170022 68 47 4.0 20.0 0.00 0.00 0.00 75 1014.7
20260510164524 76 32 14.0 28.0 0.00 0.00 0.00 64 1014.5
20260510163015 80 337 1.0 12.0 0.00 0.00 0.00 67 1013.3
20260510161511 79 140 2.0 14.0 0.00 0.00 0.00 68 1012.5
20260510160012 78 147 7.0 14.0 0.00 0.00 0.00 67 1012.1
20260510154505 78 137 2.0 17.0 0.00 0.00 0.00 68 1012.1
20260510153006 77 148 7.0 15.0 0.00 0.00 0.00 66 1011.7
20260510151504 76 83 4.0 14.0 0.00 0.00 0.00 65 1011.7
20260510150003 76 188 4.0 11.0 0.00 0.00 0.00 65 1011.9
20260510144501 75 119 3.0 12.0 0.00 0.00 0.00 66 1012.1
20260510143002 74 103 1.0 11.0 0.00 0.00 0.00 67 1012.1
20260510141604 73 103 3.0 11.0 0.00 0.00 0.00 68 1012.4
20260510140059 72 87 2.0 9.0 0.00 0.00 0.00 70 1012.6
20260510134606 71 290 1.0 5.0 0.00 0.00 0.00 71 1012.8
20260510133116 71 141 0.0 9.0 0.00 0.00 0.00 72 1012.7
20260510131604 70 129 2.0 7.0 0.00 0.00 0.00 73 1012.7
20260510130058 70 97 1.0 7.0 0.00 0.00 0.00 73 1012.7
20260510124558 70 184 3.0 8.0 0.00 0.00 0.00 72 1012.1
20260510123101 69 171 2.0 6.0 0.00 0.00 0.00 74 1012.1
20260510121549 69 121 1.0 6.0 0.00 0.00 0.00 74 1011.8
20260510120048 69 84 2.0 6.0 0.00 0.00 0.00 75 1011.5
20260510114546 69 40 2.0 8.0 0.00 0.00 0.00 74 1011.5
20260510113045 69 112 2.0 9.0 0.00 0.00 0.00 74 1011.5
20260510111543 69 47 1.0 12.0 0.00 0.00 0.00 75 1011.3
20260510110041 70 343 2.0 10.0 0.00 0.00 0.00 74 1011.2
20260510104540 70 71 1.0 9.0 0.00 0.00 0.00 75 1011.0
20260510103039 71 88 2.0 9.0 0.00 0.00 0.00 77 1011.1
20260510101534 71 112 2.0 12.0 0.00 0.00 0.00 77 1011.0
20260510100031 72 52 2.0 10.0 0.00 0.00 0.00 78 1010.7
20260510094527 73 58 3.0 11.0 0.00 0.00 0.00 80 1010.5
20260510093027 73 142 2.0 7.0 0.00 0.00 0.00 83 1010.5
20260510091523 73 68 1.0 5.0 0.00 0.00 0.00 82 1010.0
20260510090021 73 350 1.0 4.0 0.00 0.00 0.00 80 1009.6
20260510084518 74 43 3.0 6.0 0.00 0.00 0.00 78 1009.7
20260510083019 74 29 1.0 6.0 0.00 0.00 0.00 77 1009.7
20260510081516 74 34 3.0 6.0 0.00 0.00 0.00 76 1009.9
20260510080016 75 28 0.0 2.0 0.00 0.00 0.00 75 1009.0
20260510074511 75 73 0.0 3.0 0.00 0.00 0.00 74 1008.7
20260510073011 75 134 0.0 2.0 0.00 0.00 0.00 73 1008.4
20260510071510 75 90 1.0 4.0 0.00 0.00 0.00 72 1008.0
20260510070008 75 139 0.0 6.0 0.00 0.00 0.00 71 1008.2
20260510064506 75 144 1.0 4.0 0.00 0.00 0.00 72 1008.7
20260510063005 75 65 2.0 9.0 0.00 0.00 0.00 72 1008.9
20260510061503 75 51 2.0 12.0 0.00 0.00 0.00 71 1009.3
20260510060059 75 136 1.0 3.0 0.00 0.00 0.00 67 1008.3
20260510054556 76 107 0.0 4.0 0.00 0.00 0.00 66 1007.4
20260510053054 76 131 1.0 4.0 0.00 0.00 0.00 65 1007.3
20260510051555 77 136 0.0 4.0 0.00 0.00 0.00 64 1006.8
20260510050048 77 52 1.0 10.0 0.00 0.00 0.00 64 1006.8
20260510044551 77 165 1.0 7.0 0.00 0.00 0.00 64 1006.5
20260510043104 78 125 1.0 10.0 0.00 0.00 0.00 64 1006.4
20260510041550 78 173 2.0 8.0 0.00 0.00 0.00 64 1006.7
20260510040050 78 109 1.0 6.0 0.00 0.00 0.00 65 1007.0
20260510034547 79 91 1.0 7.0 0.00 0.00 0.00 64 1006.9
20260510033047 79 117 1.0 4.0 0.00 0.00 0.00 64 1007.0
20260510031553 80 116 0.0 6.0 0.00 0.00 0.00 63 1007.2
20260510030044 80 94 0.0 7.0 0.00 0.00 0.00 62 1007.2
20260510024544 81 128 1.0 8.0 0.00 0.00 0.00 60 1007.0
20260510023043 81 76 0.0 4.0 0.00 0.00 0.00 57 1006.9
20260510021543 82 136 0.0 3.0 0.00 0.00 0.00 55 1006.7
20260510020042 83 117 0.0 6.0 0.00 0.00 0.00 53 1006.5
20260510014542 83 138 1.0 4.0 0.00 0.00 0.00 51 1006.3
20260510013041 84 126 0.0 4.0 0.00 0.00 0.00 50 1006.2
20260510011541 85 101 0.0 4.0 0.00 0.00 0.00 49 1006.0
20260510010039 87 149 0.0 4.0 0.00 0.00 0.00 48 1005.8
20260510004539 89 147 1.0 7.0 0.00 0.00 0.00 47 1005.7
20260510003139 89 62 0.0 3.0 0.00 0.00 0.00 47 1005.6
20260510001538 90 107 0.0 3.0 0.00 0.00 0.00 48 1005.7
20260510000037 89 117 1.0 4.0 0.00 0.00 0.00 47 1005.7
20260509234537 88 11 1.0 5.0 0.00 0.00 0.00 53 1005.8
20260509233036 89 277 2.0 5.0 0.00 0.00 0.00 48 1005.9
20260509231535 88 242 2.0 4.0 0.00 0.00 0.00 46 1006.0
20260509230033 89 295 2.0 4.0 0.00 0.00 0.00 47 1006.1
20260509224537 89 317 0.0 4.0 0.00 0.00 0.00 47 1006.0
20260509223031 88 251 1.0 6.0 0.00 0.00 0.00 48 1006.0
20260509221532 90 155 0.0 7.0 0.00 0.00 0.00 45 1006.0
20260509220028 91 80 0.0 4.0 0.00 0.00 0.00 45 1006.2
20260509214525 90 150 2.0 6.0 0.00 0.00 0.00 44 1006.2
20260509213023 89 19 0.0 4.0 0.00 0.00 0.00 50 1006.4
20260509211521 88 19 2.0 8.0 0.00 0.00 0.00 50 1006.5
20260509210029 89 17 2.0 4.0 0.00 0.00 0.00 49 1006.8
20260509204517 88 22 1.0 5.0 0.00 0.00 0.00 50 1007.0
20260509203115 87 13 3.0 5.0 0.00 0.00 0.00 52 1007.2
20260509201514 88 360 1.0 4.0 0.00 0.00 0.00 49 1007.5
20260509200010 86 147 0.0 6.0 0.00 0.00 0.00 54 1007.6
20260509194508 86 257 2.0 7.0 0.00 0.00 0.00 55 1007.8
20260509193010 85 225 2.0 8.0 0.00 0.00 0.00 57 1008.0